Location: Unspecified
(0.0000°N, 0.0000°E)
Time: 01:20:23
(UTC+00:00)

STRELA 3 - Pass Details

Date: 21 May 2026
Orbit: 1496 x 1510 km, 82.5° (Epoch: 10 June)

Event Time Altitude Azimuth Distance (km) Brightness Sun altitude
Rises 02:06:37 0° 359° (N) 4,614 10.6 -52.3°
Reaches altitude 10° 02:09:30 10° 1° (N) 3,635 10.0 -51.7°
Enters shadow 02:11:01 17° 2° (N) 3,128 9.6 -51.4°
